Year,Month,Day,Hour,Minute,Value (Times are PST for windgust in km/hr)
2012,01,25,00,00,27.40
2012,01,25,00,01,20.90
2012,01,25,00,02,32.20
2012,01,25,00,03,35.40
2012,01,25,00,04,41.80
2012,01,25,00,05,38.60
2012,01,25,00,06,25.70
2012,01,25,00,07,32.20
2012,01,25,00,08,24.20
2012,01,25,00,09,32.20
2012,01,25,00,10,22.50
2012,01,25,00,11,24.20
2012,01,25,00,12,33.80
2012,01,25,00,13,17.70
2012,01,25,00,14,43.50
2012,01,25,00,15,46.70
2012,01,25,00,16,30.60
2012,01,25,00,17,22.50
2012,01,25,00,18,24.20
2012,01,25,00,19,35.40
2012,01,25,00,20,38.60
2012,01,25,00,21,25.70
2012,01,25,00,22,25.70
2012,01,25,00,23,38.60
2012,01,25,00,24,41.80
2012,01,25,00,25,29.00
2012,01,25,00,26,19.30
2012,01,25,00,27,24.20
2012,01,25,00,28,40.20
2012,01,25,00,29,37.00
2012,01,25,00,30,32.20
2012,01,25,00,31,17.70
2012,01,25,00,32,30.60
2012,01,25,00,33,29.00
2012,01,25,00,34,43.50
2012,01,25,00,35,37.00
2012,01,25,00,36,24.20
2012,01,25,00,37,27.40
2012,01,25,00,38,24.20
2012,01,25,00,39,24.20
2012,01,25,00,40,29.00
2012,01,25,00,41,32.20
2012,01,25,00,42,22.50
2012,01,25,00,43,19.30
2012,01,25,00,44,22.50
2012,01,25,00,45,24.20
2012,01,25,00,46,40.20
2012,01,25,00,47,33.80
2012,01,25,00,48,24.20
2012,01,25,00,49,29.00
2012,01,25,00,50,25.70
2012,01,25,00,51,29.00
2012,01,25,00,52,24.20
2012,01,25,00,53,19.30
2012,01,25,00,54,19.30
2012,01,25,00,55,27.40
2012,01,25,00,56,37.00
2012,01,25,00,57,33.80
2012,01,25,00,58,37.00
2012,01,25,00,59,20.90
2012,01,25,01,00,30.60
2012,01,25,01,01,19.30
2012,01,25,01,02,14.50
2012,01,25,01,03,27.40
2012,01,25,01,04,16.10
2012,01,25,01,05,41.80
2012,01,25,01,06,41.80
2012,01,25,01,07,38.60
2012,01,25,01,08,37.00
2012,01,25,01,09,33.80
2012,01,25,01,10,37.00
2012,01,25,01,11,33.80
2012,01,25,01,12,32.20
2012,01,25,01,13,32.20
2012,01,25,01,14,32.20
2012,01,25,01,15,24.20
2012,01,25,01,16,32.20
2012,01,25,01,17,25.70
2012,01,25,01,18,25.70
2012,01,25,01,19,22.50
2012,01,25,01,20,24.20
2012,01,25,01,21,41.80
2012,01,25,01,22,40.20
2012,01,25,01,23,46.70
2012,01,25,01,24,56.30
2012,01,25,01,25,37.00
2012,01,25,01,26,32.20
2012,01,25,01,27,35.40
2012,01,25,01,28,37.00
2012,01,25,01,29,38.60
2012,01,25,01,30,48.30
2012,01,25,01,31,49.90
2012,01,25,01,32,56.30
2012,01,25,01,33,41.80
2012,01,25,01,34,45.10
2012,01,25,01,35,30.60
2012,01,25,01,36,30.60
2012,01,25,01,37,40.20
2012,01,25,01,38,45.10
2012,01,25,01,39,48.30
2012,01,25,01,40,35.40
2012,01,25,01,41,20.90
2012,01,25,01,42,32.20
2012,01,25,01,43,35.40
2012,01,25,01,44,35.40
2012,01,25,01,45,37.00
2012,01,25,01,46,35.40
2012,01,25,01,47,27.40
2012,01,25,01,48,37.00
2012,01,25,01,49,37.00
2012,01,25,01,50,38.60
2012,01,25,01,51,57.90
2012,01,25,01,52,35.40
2012,01,25,01,53,27.40
2012,01,25,01,54,20.90
2012,01,25,01,55,32.20
2012,01,25,01,56,30.60
2012,01,25,01,57,24.20
2012,01,25,01,58,17.70
2012,01,25,01,59,25.70
2012,01,25,02,00,17.70
2012,01,25,02,01,29.00
2012,01,25,02,02,11.30
2012,01,25,02,03,22.50
2012,01,25,02,04,27.40
2012,01,25,02,05,35.40
2012,01,25,02,06,33.80
2012,01,25,02,07,46.70
2012,01,25,02,08,32.20
2012,01,25,02,09,45.10
2012,01,25,02,10,25.70
2012,01,25,02,11,32.20
2012,01,25,02,12,37.00
2012,01,25,02,13,25.70
2012,01,25,02,14,35.40
2012,01,25,02,15,17.70
2012,01,25,02,16,29.00
2012,01,25,02,17,33.80
2012,01,25,02,18,29.00
2012,01,25,02,19,29.00
2012,01,25,02,20,40.20
2012,01,25,02,21,32.20
2012,01,25,02,22,38.60
2012,01,25,02,23,43.50
2012,01,25,02,24,24.20
2012,01,25,02,25,29.00
2012,01,25,02,26,29.00
2012,01,25,02,27,37.00
2012,01,25,02,28,38.60
2012,01,25,02,29,35.40
2012,01,25,02,30,43.50
2012,01,25,02,31,40.20
2012,01,25,02,32,25.70
2012,01,25,02,33,25.70
2012,01,25,02,34,20.90
2012,01,25,02,35,33.80
2012,01,25,02,36,27.40
2012,01,25,02,37,16.10
2012,01,25,02,38,17.70
2012,01,25,02,39,17.70
2012,01,25,02,40,24.20
2012,01,25,02,41,30.60
2012,01,25,02,42,25.70
2012,01,25,02,43,27.40
2012,01,25,02,44,16.10
2012,01,25,02,45,22.50
2012,01,25,02,46,27.40
2012,01,25,02,47,33.80
2012,01,25,02,48,25.70
2012,01,25,02,49,11.30
2012,01,25,02,50,20.90
2012,01,25,02,51,22.50
2012,01,25,02,52,27.40
2012,01,25,02,53,14.50
2012,01,25,02,54,17.70
2012,01,25,02,55,19.30
2012,01,25,02,56,27.40
2012,01,25,02,57,22.50
2012,01,25,02,58,25.70
2012,01,25,02,59,16.10
2012,01,25,03,00,16.10
2012,01,25,03,01,25.70
2012,01,25,03,02,19.30
2012,01,25,03,03,14.50
2012,01,25,03,04,14.50
2012,01,25,03,05,17.70
2012,01,25,03,06,20.90
2012,01,25,03,07,14.50
2012,01,25,03,08,17.70
2012,01,25,03,09,19.30
2012,01,25,03,10,24.20
2012,01,25,03,11,20.90
2012,01,25,03,12,24.20
2012,01,25,03,13,14.50
2012,01,25,03,14,17.70
2012,01,25,03,15,6.40
2012,01,25,03,16,11.30
2012,01,25,03,17,30.60
2012,01,25,03,18,22.50
2012,01,25,03,19,17.70
2012,01,25,03,20,17.70
2012,01,25,03,21,16.10
2012,01,25,03,22,22.50
2012,01,25,03,23,25.70
2012,01,25,03,24,17.70
2012,01,25,03,25,22.50
2012,01,25,03,26,20.90
2012,01,25,03,27,27.40
2012,01,25,03,28,16.10
2012,01,25,03,29,6.40
2012,01,25,03,30,14.50
2012,01,25,03,31,24.20
2012,01,25,03,32,19.30
2012,01,25,03,33,19.30
2012,01,25,03,34,14.50
2012,01,25,03,35,12.90
2012,01,25,03,36,20.90
2012,01,25,03,37,24.20
2012,01,25,03,38,25.70
2012,01,25,03,39,24.20
2012,01,25,03,40,24.20
2012,01,25,03,41,19.30
2012,01,25,03,42,11.30
2012,01,25,03,43,8.10
2012,01,25,03,44,8.10
2012,01,25,03,45,4.80
2012,01,25,03,46,19.30
2012,01,25,03,47,16.10
2012,01,25,03,48,16.10
2012,01,25,03,49,20.90
2012,01,25,03,50,17.70
2012,01,25,03,51,17.70
2012,01,25,03,52,8.10
2012,01,25,03,53,12.90
2012,01,25,03,54,33.80
2012,01,25,03,55,17.70
2012,01,25,03,56,20.90
2012,01,25,03,57,19.30
2012,01,25,03,58,9.60
2012,01,25,03,59,16.10
2012,01,25,04,00,14.50
2012,01,25,04,01,20.90
2012,01,25,04,02,25.70
2012,01,25,04,03,25.70
2012,01,25,04,04,24.20
2012,01,25,04,05,30.60
2012,01,25,04,06,20.90
2012,01,25,04,07,33.80
2012,01,25,04,08,24.20
2012,01,25,04,09,40.20
2012,01,25,04,10,25.70
2012,01,25,04,11,27.40
2012,01,25,04,12,19.30
2012,01,25,04,13,8.10
2012,01,25,04,14,32.20
2012,01,25,04,15,14.50
2012,01,25,04,16,11.30
2012,01,25,04,17,9.60
2012,01,25,04,18,16.10
2012,01,25,04,19,9.60
2012,01,25,04,20,11.30
2012,01,25,04,21,11.30
2012,01,25,04,22,11.30
2012,01,25,04,23,11.30
2012,01,25,04,24,16.10
2012,01,25,04,25,11.30
2012,01,25,04,26,16.10
2012,01,25,04,27,14.50
2012,01,25,04,28,9.60
2012,01,25,04,29,8.10
2012,01,25,04,30,4.80
2012,01,25,04,31,11.30
2012,01,25,04,32,8.10
2012,01,25,04,33,14.50
2012,01,25,04,34,4.80
2012,01,25,04,35,6.40
2012,01,25,04,36,9.60
2012,01,25,04,37,4.80
2012,01,25,04,38,4.80
2012,01,25,04,39,8.10
2012,01,25,04,40,3.20
2012,01,25,04,41,1.60
2012,01,25,04,42,4.80
2012,01,25,04,43,8.10
2012,01,25,04,44,4.80
2012,01,25,04,45,6.40
2012,01,25,04,46,9.60
2012,01,25,04,47,4.80
2012,01,25,04,48,8.10
2012,01,25,04,49,8.10
2012,01,25,04,50,11.30
2012,01,25,04,51,4.80
2012,01,25,04,52,6.40
2012,01,25,04,53,6.40
2012,01,25,04,54,11.30
2012,01,25,04,55,9.60
2012,01,25,04,56,11.30
2012,01,25,04,57,9.60
2012,01,25,04,58,6.40
2012,01,25,04,59,8.10
2012,01,25,05,00,8.10
2012,01,25,05,01,9.60
2012,01,25,05,02,11.30
2012,01,25,05,03,11.30
2012,01,25,05,04,14.50
2012,01,25,05,05,16.10
2012,01,25,05,06,14.50
2012,01,25,05,07,20.90
2012,01,25,05,08,29.00
2012,01,25,05,09,22.50
2012,01,25,05,10,37.00
2012,01,25,05,11,35.40
2012,01,25,05,12,27.40
2012,01,25,05,13,32.20
2012,01,25,05,14,32.20
2012,01,25,05,15,20.90
2012,01,25,05,16,22.50
2012,01,25,05,17,17.70
2012,01,25,05,18,16.10
2012,01,25,05,19,4.80
2012,01,25,05,20,4.80
2012,01,25,05,21,6.40
2012,01,25,05,22,3.20
2012,01,25,05,23,4.80
2012,01,25,05,24,4.80
2012,01,25,05,25,4.80
2012,01,25,05,26,3.20
2012,01,25,05,27,3.20
2012,01,25,05,28,1.60
2012,01,25,05,29,1.60
2012,01,25,05,30,3.20
2012,01,25,05,31,1.60
2012,01,25,05,33,1.60
2012,01,25,05,34,3.20
2012,01,25,05,35,3.20
2012,01,25,05,36,3.20
2012,01,25,05,37,4.80
2012,01,25,05,38,1.60
2012,01,25,05,39,1.60
2012,01,25,05,40,1.60
2012,01,25,05,41,1.60
2012,01,25,05,42,1.60
2012,01,25,05,43,11.30
2012,01,25,05,44,11.30
2012,01,25,05,45,4.80
2012,01,25,05,46,1.60
2012,01,25,05,47,8.10
2012,01,25,05,48,8.10
2012,01,25,05,49,4.80
2012,01,25,05,50,9.60
2012,01,25,05,51,9.60
2012,01,25,05,52,4.80
2012,01,25,05,53,4.80
2012,01,25,05,54,3.20
2012,01,25,05,55,6.40
2012,01,25,05,56,4.80
2012,01,25,05,57,1.60
2012,01,25,05,58,3.20
2012,01,25,05,59,8.10
2012,01,25,06,00,4.80
2012,01,25,06,01,6.40
2012,01,25,06,02,4.80
2012,01,25,06,03,6.40
2012,01,25,06,04,6.40
2012,01,25,06,05,4.80
2012,01,25,06,06,6.40
2012,01,25,06,07,6.40
2012,01,25,06,08,4.80
2012,01,25,06,09,11.30
2012,01,25,06,10,8.10
2012,01,25,06,11,11.30
2012,01,25,06,12,8.10
2012,01,25,06,13,4.80
2012,01,25,06,14,8.10
2012,01,25,06,15,4.80
2012,01,25,06,16,8.10
2012,01,25,06,17,11.30
2012,01,25,06,18,11.30
2012,01,25,06,19,8.10
2012,01,25,06,20,8.10
2012,01,25,06,21,9.60
2012,01,25,06,22,6.40
2012,01,25,06,23,6.40
2012,01,25,06,24,6.40
2012,01,25,06,25,9.60
2012,01,25,06,26,11.30
2012,01,25,06,27,20.90
2012,01,25,06,28,12.90
2012,01,25,06,29,11.30
2012,01,25,06,30,9.60
2012,01,25,06,31,16.10
2012,01,25,06,32,14.50
2012,01,25,06,33,9.60
2012,01,25,06,34,11.30
2012,01,25,06,35,4.80
2012,01,25,06,36,9.60
2012,01,25,06,37,4.80
2012,01,25,06,38,1.60
2012,01,25,06,39,1.60
2012,01,25,06,40,1.60
2012,01,25,06,41,1.60
2012,01,25,06,42,1.60
2012,01,25,06,57,1.60
2012,01,25,07,03,1.60
2012,01,25,07,04,1.60
2012,01,25,07,05,1.60
2012,01,25,07,07,1.60
2012,01,25,07,10,3.20
2012,01,25,07,11,1.60
2012,01,25,07,13,1.60
2012,01,25,07,17,1.60
2012,01,25,07,19,3.20
2012,01,25,07,20,3.20
2012,01,25,07,21,1.60
2012,01,25,07,22,1.60
2012,01,25,07,23,3.20
2012,01,25,07,26,1.60
2012,01,25,07,27,1.60
2012,01,25,07,28,1.60
2012,01,25,07,29,1.60
2012,01,25,07,30,3.20
2012,01,25,07,31,1.60
2012,01,25,07,34,1.60
2012,01,25,07,45,1.60
2012,01,25,07,46,1.60
2012,01,25,07,47,1.60
2012,01,25,07,49,1.60
2012,01,25,07,50,3.20
2012,01,25,07,51,1.60
2012,01,25,07,52,3.20
2012,01,25,07,53,3.20
2012,01,25,07,54,1.60
2012,01,25,07,55,3.20
2012,01,25,07,56,6.40
2012,01,25,07,57,8.10
2012,01,25,07,58,8.10
2012,01,25,07,59,8.10
2012,01,25,08,00,4.80
2012,01,25,08,01,6.40
2012,01,25,08,02,4.80
2012,01,25,08,03,3.20
2012,01,25,08,04,3.20
2012,01,25,08,06,1.60
2012,01,25,08,07,1.60
2012,01,25,08,08,1.60
2012,01,25,08,09,3.20
2012,01,25,08,10,3.20
2012,01,25,08,11,4.80
2012,01,25,08,12,4.80
2012,01,25,08,13,6.40
2012,01,25,08,14,4.80
2012,01,25,08,15,8.10
2012,01,25,08,16,11.30
2012,01,25,08,17,8.10
2012,01,25,08,18,9.60
2012,01,25,08,19,8.10
2012,01,25,08,20,17.70
2012,01,25,08,21,4.80
2012,01,25,08,22,1.60
2012,01,25,08,23,1.60
2012,01,25,08,24,1.60
2012,01,25,08,25,4.80
2012,01,25,08,26,3.20
2012,01,25,08,27,1.60
2012,01,25,08,28,1.60
2012,01,25,08,29,1.60
2012,01,25,08,31,4.80
2012,01,25,08,32,4.80
2012,01,25,08,33,9.60
2012,01,25,08,34,6.40
2012,01,25,08,35,1.60
2012,01,25,08,36,4.80
2012,01,25,08,37,4.80
2012,01,25,08,38,8.10
2012,01,25,08,39,1.60
2012,01,25,08,40,3.20
2012,01,25,08,43,1.60
2012,01,25,08,44,4.80
2012,01,25,08,45,8.10
2012,01,25,08,46,4.80
2012,01,25,08,47,1.60
2012,01,25,08,48,9.60
2012,01,25,08,49,8.10
2012,01,25,08,50,4.80
2012,01,25,08,51,3.20
2012,01,25,08,52,6.40
2012,01,25,08,53,4.80
2012,01,25,08,54,6.40
2012,01,25,08,55,6.40
2012,01,25,08,56,4.80
2012,01,25,08,57,3.20
2012,01,25,09,00,3.20
2012,01,25,09,01,3.20
2012,01,25,09,02,1.60
2012,01,25,09,03,3.20
2012,01,25,09,04,6.40
2012,01,25,09,05,1.60
2012,01,25,09,06,1.60
2012,01,25,09,07,4.80
2012,01,25,09,08,6.40
2012,01,25,09,09,6.40
2012,01,25,09,10,6.40
2012,01,25,09,11,8.10
2012,01,25,09,12,3.20
2012,01,25,09,13,8.10
2012,01,25,09,14,6.40
2012,01,25,09,15,4.80
2012,01,25,09,16,3.20
2012,01,25,09,17,3.20
2012,01,25,09,18,1.60
2012,01,25,09,21,1.60
2012,01,25,09,22,4.80
2012,01,25,09,23,8.10
2012,01,25,09,24,4.80
2012,01,25,09,25,3.20
2012,01,25,09,26,8.10
2012,01,25,09,27,22.50
2012,01,25,09,28,11.30
2012,01,25,09,29,14.50
2012,01,25,09,30,20.90
2012,01,25,09,31,25.70
2012,01,25,09,32,22.50
2012,01,25,09,33,24.20
2012,01,25,09,34,14.50
2012,01,25,09,35,25.70
2012,01,25,09,36,25.70
2012,01,25,09,37,25.70
2012,01,25,09,38,24.20
2012,01,25,09,39,14.50
2012,01,25,09,40,30.60
2012,01,25,09,41,20.90
2012,01,25,09,42,30.60
2012,01,25,09,43,16.10
2012,01,25,09,44,16.10
2012,01,25,09,45,12.90
2012,01,25,09,46,6.40
2012,01,25,09,47,8.10
2012,01,25,09,48,14.50
2012,01,25,09,49,11.30
2012,01,25,09,50,9.60
2012,01,25,09,51,8.10
2012,01,25,09,52,9.60
2012,01,25,09,53,11.30
2012,01,25,09,54,11.30
2012,01,25,09,55,24.20
2012,01,25,09,56,16.10
2012,01,25,09,57,19.30
2012,01,25,09,58,16.10
2012,01,25,09,59,14.50
2012,01,25,10,00,16.10
2012,01,25,10,01,37.00
2012,01,25,10,02,33.80
2012,01,25,10,03,37.00
2012,01,25,10,04,20.90
2012,01,25,10,05,29.00
2012,01,25,10,06,32.20
2012,01,25,10,07,24.20
2012,01,25,10,08,30.60
2012,01,25,10,09,33.80
2012,01,25,10,10,20.90
2012,01,25,10,11,16.10
2012,01,25,10,12,27.40
2012,01,25,10,13,22.50
2012,01,25,10,14,17.70
2012,01,25,10,15,17.70
2012,01,25,10,16,17.70
2012,01,25,10,17,25.70
2012,01,25,10,18,24.20
2012,01,25,10,19,20.90
2012,01,25,10,20,11.30
2012,01,25,10,21,3.20
2012,01,25,10,22,14.50
2012,01,25,10,23,16.10
2012,01,25,10,24,9.60
2012,01,25,10,25,6.40
2012,01,25,10,26,16.10
2012,01,25,10,27,6.40
2012,01,25,10,28,8.10
2012,01,25,10,29,4.80
2012,01,25,10,30,8.10
2012,01,25,10,31,3.20
2012,01,25,10,32,3.20
2012,01,25,10,33,14.50
2012,01,25,10,34,12.90
2012,01,25,10,35,4.80
2012,01,25,10,36,8.10
2012,01,25,10,37,4.80
2012,01,25,10,38,6.40
2012,01,25,10,39,6.40
2012,01,25,10,40,1.60
2012,01,25,10,41,4.80
2012,01,25,10,42,14.50
2012,01,25,10,43,11.30
2012,01,25,10,44,14.50
2012,01,25,10,45,9.60
2012,01,25,10,46,4.80
2012,01,25,10,47,6.40
2012,01,25,10,48,6.40
2012,01,25,10,49,14.50
2012,01,25,10,50,9.60
2012,01,25,10,51,8.10
2012,01,25,10,52,9.60
2012,01,25,10,53,9.60
2012,01,25,10,54,14.50
2012,01,25,10,55,12.90
2012,01,25,10,56,8.10
2012,01,25,10,57,6.40
2012,01,25,10,58,8.10
2012,01,25,10,59,9.60
2012,01,25,11,00,8.10
2012,01,25,11,01,8.10
2012,01,25,11,02,9.60
2012,01,25,11,03,12.90
2012,01,25,11,04,17.70
2012,01,25,11,05,17.70
2012,01,25,11,06,9.60
2012,01,25,11,07,11.30
2012,01,25,11,08,11.30
2012,01,25,11,09,11.30
2012,01,25,11,10,9.60
2012,01,25,11,11,11.30
2012,01,25,11,12,8.10
2012,01,25,11,13,19.30
2012,01,25,11,14,17.70
2012,01,25,11,15,11.30
2012,01,25,11,16,22.50
2012,01,25,11,17,11.30
2012,01,25,11,18,17.70
2012,01,25,11,19,9.60
2012,01,25,11,20,19.30
2012,01,25,11,21,16.10
2012,01,25,11,22,19.30
2012,01,25,11,23,14.50
2012,01,25,11,24,11.30
2012,01,25,11,25,11.30
2012,01,25,11,26,14.50
2012,01,25,11,27,9.60
2012,01,25,11,28,9.60
2012,01,25,11,29,8.10
2012,01,25,11,30,8.10
2012,01,25,11,31,11.30
2012,01,25,11,32,9.60
2012,01,25,11,33,14.50
2012,01,25,11,34,14.50
2012,01,25,11,35,17.70
2012,01,25,11,36,8.10
2012,01,25,11,37,11.30
2012,01,25,11,38,14.50
2012,01,25,11,39,9.60
2012,01,25,11,40,19.30
2012,01,25,11,41,9.60
2012,01,25,11,42,8.10
2012,01,25,11,43,16.10
2012,01,25,11,44,14.50
2012,01,25,11,45,16.10
2012,01,25,11,46,17.70
2012,01,25,11,47,20.90
2012,01,25,11,48,11.30
2012,01,25,11,49,9.60
2012,01,25,11,50,14.50
2012,01,25,11,51,9.60
2012,01,25,11,52,38.60
2012,01,25,11,53,24.20
2012,01,25,11,54,22.50
2012,01,25,11,55,14.50
2012,01,25,11,56,27.40
2012,01,25,11,57,35.40
2012,01,25,11,58,27.40
2012,01,25,11,59,22.50
2012,01,25,12,00,29.00
2012,01,25,12,01,24.20
2012,01,25,12,02,19.30
2012,01,25,12,03,20.90
2012,01,25,12,04,17.70
2012,01,25,12,05,14.50
2012,01,25,12,06,19.30
2012,01,25,12,07,16.10
2012,01,25,12,08,16.10
2012,01,25,12,09,11.30
2012,01,25,12,10,9.60
2012,01,25,12,11,20.90
2012,01,25,12,12,22.50
2012,01,25,12,13,16.10
2012,01,25,12,14,8.10
2012,01,25,12,15,17.70
2012,01,25,12,16,17.70
2012,01,25,12,17,12.90
2012,01,25,12,18,9.60
2012,01,25,12,19,9.60
2012,01,25,12,20,9.60
2012,01,25,12,21,8.10
2012,01,25,12,22,24.20
2012,01,25,12,23,22.50
2012,01,25,12,24,14.50
2012,01,25,12,25,17.70
2012,01,25,12,26,4.80
2012,01,25,12,27,6.40
2012,01,25,12,28,4.80
2012,01,25,12,29,9.60
2012,01,25,12,30,14.50
2012,01,25,12,31,16.10
2012,01,25,12,32,9.60
2012,01,25,12,33,8.10
2012,01,25,12,34,6.40
2012,01,25,12,35,4.80
2012,01,25,12,36,6.40
2012,01,25,12,37,4.80
2012,01,25,12,38,4.80
2012,01,25,12,39,3.20
2012,01,25,12,40,6.40
2012,01,25,12,41,8.10
2012,01,25,12,42,9.60
2012,01,25,12,43,4.80
2012,01,25,12,44,4.80
2012,01,25,12,45,9.60
2012,01,25,12,46,8.10
2012,01,25,12,47,6.40
2012,01,25,12,48,8.10
2012,01,25,12,49,6.40
2012,01,25,12,50,11.30
2012,01,25,12,51,16.10
2012,01,25,12,52,19.30
2012,01,25,12,53,25.70
2012,01,25,12,54,14.50
2012,01,25,12,55,19.30
2012,01,25,12,56,14.50
2012,01,25,12,57,24.20
2012,01,25,12,58,20.90
2012,01,25,12,59,16.10
2012,01,25,13,00,16.10
2012,01,25,13,01,19.30
2012,01,25,13,02,19.30
2012,01,25,13,03,8.10
2012,01,25,13,04,17.70
2012,01,25,13,05,12.90
2012,01,25,13,06,19.30
2012,01,25,13,07,11.30
2012,01,25,13,08,14.50
2012,01,25,13,09,25.70
2012,01,25,13,10,14.50
2012,01,25,13,11,17.70
2012,01,25,13,12,19.30
2012,01,25,13,13,17.70
2012,01,25,13,14,24.20
2012,01,25,13,15,29.00
2012,01,25,13,16,22.50
2012,01,25,13,17,17.70
2012,01,25,13,18,25.70
2012,01,25,13,19,17.70
2012,01,25,13,20,17.70
2012,01,25,13,21,25.70
2012,01,25,13,22,20.90
2012,01,25,13,23,25.70
2012,01,25,13,24,24.20
2012,01,25,13,25,16.10
2012,01,25,13,26,19.30
2012,01,25,13,27,27.40
2012,01,25,13,28,17.70
2012,01,25,13,29,17.70
2012,01,25,13,30,14.50
2012,01,25,13,31,9.60
2012,01,25,13,32,24.20
2012,01,25,13,33,22.50
2012,01,25,13,34,17.70
2012,01,25,13,35,12.90
2012,01,25,13,36,25.70
2012,01,25,13,37,17.70
2012,01,25,13,38,29.00
2012,01,25,13,39,19.30
2012,01,25,13,40,24.20
2012,01,25,13,41,16.10
2012,01,25,13,42,16.10
2012,01,25,13,43,17.70
2012,01,25,13,44,17.70
2012,01,25,13,45,22.50
2012,01,25,13,46,17.70
2012,01,25,13,47,12.90
2012,01,25,13,48,11.30
2012,01,25,13,49,14.50
2012,01,25,13,50,25.70
2012,01,25,13,51,19.30
2012,01,25,13,52,17.70
2012,01,25,13,53,22.50
2012,01,25,13,54,9.60
2012,01,25,13,55,17.70
2012,01,25,13,56,20.90
2012,01,25,13,57,22.50
2012,01,25,13,58,22.50
2012,01,25,13,59,29.00
2012,01,25,14,00,19.30
2012,01,25,14,01,30.60
2012,01,25,14,02,24.20
2012,01,25,14,03,19.30
2012,01,25,14,04,27.40
2012,01,25,14,05,19.30
2012,01,25,14,06,22.50
2012,01,25,14,07,16.10
2012,01,25,14,08,16.10
2012,01,25,14,09,20.90
2012,01,25,14,10,17.70
2012,01,25,14,11,27.40
2012,01,25,14,12,24.20
2012,01,25,14,13,19.30
2012,01,25,14,14,11.30
2012,01,25,14,15,24.20
2012,01,25,14,16,20.90
2012,01,25,14,17,22.50
2012,01,25,14,18,24.20
2012,01,25,14,19,14.50
2012,01,25,14,20,14.50
2012,01,25,14,21,17.70
2012,01,25,14,22,24.20
2012,01,25,14,23,17.70
2012,01,25,14,24,16.10
2012,01,25,14,25,12.90
2012,01,25,14,26,12.90
2012,01,25,14,27,17.70
2012,01,25,14,28,12.90
2012,01,25,14,29,27.40
2012,01,25,14,30,19.30
2012,01,25,14,31,14.50
2012,01,25,14,32,20.90
2012,01,25,14,33,11.30
2012,01,25,14,34,16.10
2012,01,25,14,35,22.50
2012,01,25,14,36,9.60
2012,01,25,14,37,14.50
2012,01,25,14,38,19.30
2012,01,25,14,39,11.30
2012,01,25,14,40,19.30
2012,01,25,14,41,11.30
2012,01,25,14,42,20.90
2012,01,25,14,43,20.90
2012,01,25,14,44,16.10
2012,01,25,14,45,16.10
2012,01,25,14,46,16.10
2012,01,25,14,47,16.10
2012,01,25,14,48,14.50
2012,01,25,14,49,9.60
2012,01,25,14,50,14.50
2012,01,25,14,51,20.90
2012,01,25,14,52,19.30
2012,01,25,14,53,11.30
2012,01,25,14,54,8.10
2012,01,25,14,55,9.60
2012,01,25,14,56,8.10
2012,01,25,14,57,9.60
2012,01,25,14,58,11.30
2012,01,25,14,59,9.60
2012,01,25,15,00,9.60
2012,01,25,15,01,11.30
2012,01,25,15,02,11.30
2012,01,25,15,03,16.10
2012,01,25,15,04,9.60
2012,01,25,15,05,8.10
2012,01,25,15,06,11.30
2012,01,25,15,07,14.50
2012,01,25,15,08,11.30
2012,01,25,15,09,8.10
2012,01,25,15,10,11.30
2012,01,25,15,11,6.40
2012,01,25,15,12,6.40
2012,01,25,15,13,4.80
2012,01,25,15,14,6.40
2012,01,25,15,15,8.10
2012,01,25,15,16,8.10
2012,01,25,15,17,14.50
2012,01,25,15,18,9.60
2012,01,25,15,19,9.60
2012,01,25,15,20,14.50
2012,01,25,15,21,29.00
2012,01,25,15,22,29.00
2012,01,25,15,23,24.20
2012,01,25,15,24,19.30
2012,01,25,15,25,29.00
2012,01,25,15,26,24.20
2012,01,25,15,27,25.70
2012,01,25,15,28,24.20
2012,01,25,15,29,14.50
2012,01,25,15,30,20.90
2012,01,25,15,31,19.30
2012,01,25,15,32,24.20
2012,01,25,15,33,16.10
2012,01,25,15,34,11.30
2012,01,25,15,35,11.30
2012,01,25,15,36,6.40
2012,01,25,15,37,11.30
2012,01,25,15,38,9.60
2012,01,25,15,39,8.10
2012,01,25,15,40,14.50
2012,01,25,15,41,9.60
2012,01,25,15,42,19.30
2012,01,25,15,43,12.90
2012,01,25,15,44,9.60
2012,01,25,15,45,8.10
2012,01,25,15,46,9.60
2012,01,25,15,47,11.30
2012,01,25,15,48,8.10
2012,01,25,15,49,8.10
2012,01,25,15,50,9.60
2012,01,25,15,51,9.60
2012,01,25,15,52,11.30
2012,01,25,15,53,14.50
2012,01,25,15,54,9.60
2012,01,25,15,55,8.10
2012,01,25,15,56,6.40
2012,01,25,15,57,8.10
2012,01,25,15,58,8.10
2012,01,25,15,59,4.80
2012,01,25,16,00,6.40
2012,01,25,16,01,8.10
2012,01,25,16,02,8.10
2012,01,25,16,03,6.40
2012,01,25,16,04,6.40
2012,01,25,16,05,4.80
2012,01,25,16,06,6.40
2012,01,25,16,07,8.10
2012,01,25,16,08,4.80
2012,01,25,16,09,11.30
2012,01,25,16,10,8.10
2012,01,25,16,11,4.80
2012,01,25,16,12,1.60
2012,01,25,16,13,3.20
2012,01,25,16,14,4.80
2012,01,25,16,15,3.20
2012,01,25,16,16,3.20
2012,01,25,16,17,3.20
2012,01,25,16,18,4.80
2012,01,25,16,19,4.80
2012,01,25,16,20,6.40
2012,01,25,16,21,4.80
2012,01,25,16,22,4.80
2012,01,25,16,23,6.40
2012,01,25,16,24,6.40
2012,01,25,16,25,4.80
2012,01,25,16,26,6.40
2012,01,25,16,27,6.40
2012,01,25,16,28,6.40
2012,01,25,16,29,4.80
2012,01,25,16,30,6.40
2012,01,25,16,31,9.60
2012,01,25,16,32,6.40
2012,01,25,16,33,6.40
2012,01,25,16,34,4.80
2012,01,25,16,35,6.40
2012,01,25,16,36,8.10
2012,01,25,16,37,9.60
2012,01,25,16,38,6.40
2012,01,25,16,39,4.80
2012,01,25,16,40,4.80
2012,01,25,16,41,3.20
2012,01,25,16,42,6.40
2012,01,25,16,43,4.80
2012,01,25,16,44,9.60
2012,01,25,16,45,6.40
2012,01,25,16,46,6.40
2012,01,25,16,47,4.80
2012,01,25,16,48,4.80
2012,01,25,16,49,9.60
2012,01,25,16,50,8.10
2012,01,25,16,51,4.80
2012,01,25,16,52,9.60
2012,01,25,16,53,8.10
2012,01,25,16,54,4.80
2012,01,25,16,55,4.80
2012,01,25,16,56,4.80
2012,01,25,16,57,4.80
2012,01,25,16,58,6.40
2012,01,25,16,59,3.20
2012,01,25,17,00,1.60
2012,01,25,17,11,3.20
2012,01,25,17,12,4.80
2012,01,25,17,13,6.40
2012,01,25,17,14,6.40
2012,01,25,17,15,4.80
2012,01,25,17,16,4.80
2012,01,25,17,17,3.20
2012,01,25,17,18,3.20
2012,01,25,17,19,1.60
2012,01,25,17,20,1.60
2012,01,25,17,22,1.60
2012,01,25,17,23,1.60
2012,01,25,17,24,3.20
2012,01,25,17,25,1.60
2012,01,25,17,26,1.60
2012,01,25,17,27,3.20
2012,01,25,17,28,3.20
2012,01,25,17,29,8.10
2012,01,25,17,30,4.80
2012,01,25,17,31,3.20
2012,01,25,17,32,6.40
2012,01,25,17,34,3.20
2012,01,25,17,35,1.60
2012,01,25,17,36,1.60
2012,01,25,17,37,1.60
2012,01,25,17,38,3.20
2012,01,25,17,39,1.60
2012,01,25,17,40,3.20
2012,01,25,17,41,1.60
2012,01,25,17,42,3.20
2012,01,25,17,43,1.60
2012,01,25,17,44,1.60
2012,01,25,17,45,3.20
2012,01,25,17,46,3.20
2012,01,25,17,47,1.60
2012,01,25,17,48,3.20
2012,01,25,17,49,4.80
2012,01,25,17,50,4.80
2012,01,25,17,51,3.20
2012,01,25,17,52,4.80
2012,01,25,17,53,1.60
2012,01,25,18,00,3.20
2012,01,25,18,01,4.80
2012,01,25,18,02,1.60
2012,01,25,18,05,4.80
2012,01,25,18,06,3.20
2012,01,25,18,08,1.60
2012,01,25,18,09,3.20
2012,01,25,18,23,1.60
2012,01,25,18,32,3.20
2012,01,25,18,33,4.80
2012,01,25,18,38,1.60
2012,01,25,18,39,1.60
2012,01,25,18,40,1.60
2012,01,25,18,43,1.60
2012,01,25,18,44,1.60
2012,01,25,18,45,1.60
2012,01,25,18,53,1.60
2012,01,25,18,54,1.60
2012,01,25,19,08,1.60
2012,01,25,19,09,3.20
2012,01,25,19,10,1.60
2012,01,25,19,11,1.60
2012,01,25,19,12,4.80
2012,01,25,19,13,4.80
2012,01,25,19,14,4.80
2012,01,25,19,15,4.80
2012,01,25,19,16,3.20
2012,01,25,19,17,1.60
2012,01,25,19,18,3.20
2012,01,25,19,19,1.60
2012,01,25,19,30,1.60
2012,01,25,19,31,4.80
2012,01,25,19,33,1.60
2012,01,25,19,34,1.60
2012,01,25,19,38,1.60
2012,01,25,19,39,1.60
2012,01,25,19,40,1.60
2012,01,25,19,41,1.60
2012,01,25,19,47,1.60
2012,01,25,19,48,1.60
2012,01,25,19,49,3.20
2012,01,25,19,53,1.60
2012,01,25,19,55,1.60
2012,01,25,20,00,1.60
2012,01,25,20,01,1.60
2012,01,25,20,14,1.60
2012,01,25,20,27,1.60
2012,01,25,20,28,1.60
2012,01,25,20,32,1.60
2012,01,25,20,35,1.60